P/2018 T1 ( Hill )

Japanese version
Home page
Updated on October 14, 2018

---------------------------------------------------------------------

* Profile

Recovery Date October 5, 2018
Magnitude 20.6 mag
Recoverer K. Sarneczky (Konkoly Observatory)

* Orbital Elements

Epoch 2018 Dec. 28.0 TT = JDT 2458480.5
T 2018 Dec. 21.43815 TT                                 MPCW
q   1.8951894            (2000.0)            P               Q
n   0.07511970     Peri.  119.42683     -0.49079055     -0.87127757
a   5.5628858      Node   359.96408     +0.65956481     -0.37139245
e   0.6593154      Incl.   17.36554     +0.56929685     -0.32084739
P  13.12
From 82 observations 2005 Dec. 5-2018 Oct. 6, mean residual 0".5.

* Magnitudes Graph

        m1 = 15.0 + 5 log d + 10.0 log r

---------------------------------------------------------------------

The orbital elements are published on M.P.E.C. 2018-T62.
The magnitudes graphs are made with Comet for Windows.

---------------------------------------------------------------------

Copyright(C) Seiichi Yoshida (comet@aerith.net). All rights reserved.